KN4RPA Weather Reports


time (UTC)temp
F
wind
direction
speed
knots
gust
knots
rain 1hr
in
rain 24hr
in
rain mn
in
humidity
%
barometer
mb
20260902194546 84 172 0.9 2.6 0.00 0.00 0.00 62 1016.4
20260902193028 89 346 0.0 7.0 0.00 0.00 0.00 56 1016.6
20260902191536 91 54 0.0 4.3 0.00 0.00 0.00 57 1015.5
20260902190027 91 166 0.0 7.0 0.00 0.00 0.00 56 1015.2
20260902184526 90 155 0.0 6.1 0.00 0.00 0.00 57 1015.7
20260902183030 91 74 0.0 3.5 0.00 0.00 0.00 53 1015.6
20260902181525 91 74 0.0 2.6 0.00 0.00 0.00 55 1015.4
20260902180024 92 71 0.0 2.6 0.00 0.00 0.00 53 1015.7
20260902174523 92 84 0.0 3.5 0.00 0.00 0.00 51 1015.9
20260902173031 91 96 0.0 2.6 0.00 0.00 0.00 53 1016.0
20260902171523 91 98 0.0 0.9 0.00 0.00 0.00 54 1016.0
20260902170025 91 97 0.0 2.6 0.00 0.00 0.00 52 1016.0
20260902164521 91 99 0.0 3.5 0.00 0.00 0.00 55 1016.2
20260902163017 91 99 0.0 0.9 0.00 0.00 0.00 56 1016.1
20260902161516 90 93 0.0 2.6 0.00 0.00 0.00 55 1016.0
20260902160013 89 93 0.0 1.7 0.00 0.00 0.00 56 1016.0
20260902154518 89 92 0.0 2.6 0.00 0.00 0.00 58 1016.2
20260902153008 88 92 0.0 1.7 0.00 0.00 0.00 57 1016.1
20260902151506 87 92 0.0 5.2 0.00 0.00 0.00 61 1016.1
20260902150100 86 92 0.0 1.7 0.00 0.00 0.00 62 1016.2
20260902144604 85 92 0.0 3.5 0.00 0.00 0.00 66 1016.2
20260902143053 83 90 0.0 1.7 0.00 0.00 0.00 70 1016.3
20260902141554 82 93 0.0 2.6 0.00 0.00 0.00 74 1016.0
20260902140047 81 92 0.0 2.6 0.00 0.00 0.00 76 1016.0
20260902134548 80 90 0.0 1.7 0.00 0.00 0.00 79 1016.0
20260902133041 79 90 0.0 0.9 0.00 0.00 0.00 81 1015.9
20260902131554 78 90 0.0 0.9 0.00 0.00 0.00 82 1015.8
20260902130049 77 90 0.0 0.9 0.00 0.00 0.00 84 1016.0
20260902124534 77 107 0.0 0.9 0.00 0.00 0.00 85 1015.9
20260902123032 76 107 0.0 0.0 0.00 0.00 0.00 86 1015.9
20260902121529 75 107 0.0 0.0 0.00 0.00 0.00 85 1016.0
20260902120028 75 107 0.0 0.0 0.00 0.00 0.00 85 1016.0
20260902114528 75 107 0.0 0.0 0.00 0.00 0.00 84 1015.8
20260902113023 75 107 0.0 0.0 0.00 0.00 0.00 84 1016.0
20260902111522 75 107 0.0 0.0 0.00 0.00 0.00 83 1016.0
20260902110025 75 107 0.0 0.0 0.00 0.00 0.00 83 1015.8
20260902104526 76 107 0.0 0.0 0.00 0.00 0.00 82 1015.7
20260902103015 76 107 0.0 0.0 0.00 0.00 0.00 82 1015.7
20260902101513 76 107 0.0 0.0 0.00 0.00 0.00 82 1015.3
20260902100013 76 107 0.0 0.0 0.00 0.00 0.00 82 1015.3
20260902094511 76 107 0.0 0.9 0.00 0.00 0.00 82 1015.2
20260902093012 76 107 0.0 0.0 0.00 0.00 0.00 83 1015.0
20260902091509 76 107 0.0 0.0 0.00 0.00 0.00 83 1015.0
20260902090008 76 107 0.0 0.0 0.00 0.00 0.00 83 1015.1
20260902084508 76 107 0.0 0.0 0.00 0.00 0.00 82 1015.1
20260902083007 76 107 0.0 0.0 0.00 0.00 0.00 82 1015.1
20260902081506 77 107 0.0 0.0 0.00 0.00 0.00 82 1014.9
20260902080005 77 107 0.0 0.0 0.00 0.00 0.00 82 1015.1
20260902074505 77 107 0.0 0.0 0.00 0.00 0.00 82 1015.0
20260902073004 78 107 0.0 0.0 0.00 0.00 0.00 82 1015.1
20260902071600 78 107 0.0 0.0 0.00 0.00 0.00 81 1015.0
20260902070059 78 107 0.0 0.0 0.00 0.00 0.00 81 1014.9
20260902064557 79 107 0.0 0.9 0.00 0.00 0.00 80 1014.8
20260902063107 79 107 0.0 0.0 0.00 0.00 0.00 80 1014.8
20260902061555 79 107 0.0 0.0 0.00 0.00 0.00 80 1014.6
20260902060116 79 107 0.0 0.0 0.00 0.00 0.00 79 1014.4
20260902054553 79 107 0.0 0.9 0.00 0.00 0.00 80 1014.2
20260902053052 79 107 0.0 0.0 0.00 0.00 0.00 80 1014.1
20260902051550 79 107 0.0 0.0 0.00 0.00 0.00 80 1014.4
20260902050050 79 107 0.0 0.9 0.00 0.00 0.00 80 1014.4
20260902044547 79 107 0.0 0.0 0.00 0.00 0.00 80 1014.5
20260902043052 79 107 0.0 0.0 0.00 0.00 0.00 79 1014.5
20260902041602 79 107 0.0 0.0 0.00 0.00 0.00 78 1014.4
20260902040046 80 107 0.0 0.0 0.00 0.00 0.00 77 1014.3
20260902034545 80 107 0.0 0.0 0.00 0.00 0.00 77 1014.2
20260902033051 80 107 0.0 0.0 0.00 0.00 0.00 76 1014.0
20260902031543 81 107 0.0 0.0 0.00 0.00 0.00 75 1014.0
20260902030047 81 107 0.0 0.0 0.00 0.00 0.00 75 1014.0
20260902024543 81 107 0.0 0.0 0.00 0.00 0.00 74 1014.1
20260902023046 82 107 0.0 0.0 0.00 0.00 0.00 74 1013.9
20260902021548 82 107 0.0 0.0 0.00 0.00 0.00 74 1013.8
20260902020041 83 107 0.0 0.0 0.00 0.00 0.00 72 1013.6
20260902014547 83 107 0.0 0.0 0.00 0.00 0.00 72 1013.5
20260902013040 83 107 0.0 0.0 0.00 0.00 0.00 71 1013.3
20260902011540 84 107 0.0 0.0 0.00 0.00 0.00 70 1013.2
20260902010039 84 107 0.0 0.0 0.00 0.00 0.00 69 1012.8
20260902004541 84 107 0.0 0.0 0.00 0.00 0.00 69 1012.7
20260902003042 84 107 0.0 0.0 0.00 0.00 0.00 68 1012.4
20260902001538 85 107 0.0 0.0 0.00 0.00 0.00 67 1012.3
20260902000038 86 107 0.0 0.0 0.00 0.00 0.00 66 1012.3
20260901234537 87 107 0.0 0.0 0.00 0.00 0.00 65 1012.2
20260901233037 87 107 0.0 0.0 0.00 0.00 0.00 63 1012.3
20260901231537 88 107 0.0 0.0 0.00 0.00 0.00 63 1012.3
20260901230037 89 107 0.0 0.0 0.00 0.00 0.00 61 1012.3
20260901224532 90 107 0.0 0.0 0.00 0.00 0.00 60 1012.6
20260901223030 90 107 0.0 0.0 0.00 0.00 0.00 55 1012.8
20260901221533 91 107 0.0 0.0 0.00 0.00 0.00 54 1012.8
20260901220053 91 107 0.0 0.0 0.00 0.00 0.00 52 1012.8
20260901214528 91 106 0.0 2.6 0.00 0.00 0.00 52 1012.9
20260901213057 92 105 0.0 2.6 0.00 0.00 0.00 52 1012.9
20260901211527 92 100 0.0 2.6 0.00 0.00 0.00 53 1012.9
20260901210024 92 99 0.0 2.6 0.00 0.00 0.00 52 1013.0
20260901204533 92 49 0.0 0.9 0.00 0.00 0.00 53 1013.1
20260901203043 92 44 0.0 0.9 0.00 0.00 0.00 52 1013.2
20260901201518 92 49 0.0 3.5 0.00 0.00 0.00 50 1013.4
20260901200018 92 49 0.0 3.5 0.00 0.00 0.00 51 1013.4